IGO49DY VABP-VIDP

Flight info

Callsign IGO49DY
Flight time 0h 58m
Altitude 36000
Route BPL W19 IBANI Q23 IKAVA/N0441F350 Q23 AKRIB
Aircraft B738/M-SDE2E3FGHIRWXY/LB1

Departure

Time 2026-04-23 17:35
Airport Raja Bhoj International Airport (VABP)

Arrival

Time 2026-04-23 18:33
Airport Indira Gandhi International Airport (VIDP)
Time Latitude Longitude Altitude Speed Heading
2026-04-23 17:19 23.28975 77.33504 1704 ft 0 kts
2026-04-23 17:29 23.28969 77.33503 1704 ft 2 kts 29°
2026-04-23 17:29 23.28956 77.33498 1705 ft 2 kts
2026-04-23 17:29 23.28937 77.33476 1706 ft 2 kts 81°
2026-04-23 17:30 23.28936 77.33467 1706 ft 0 kts 97°
2026-04-23 17:30 23.28938 77.33459 1706 ft 0 kts 101°
2026-04-23 17:31 23.28937 77.33460 1706 ft 0 kts 101°
2026-04-23 17:31 23.28933 77.33484 1706 ft 5 kts 102°
2026-04-23 17:31 23.28922 77.33532 1706 ft 6 kts 104°
2026-04-23 17:31 23.28911 77.33571 1706 ft 4 kts 112°
2026-04-23 17:32 23.28888 77.33624 1707 ft 11 kts 115°
2026-04-23 17:32 23.28801 77.33669 1710 ft 18 kts 172°
2026-04-23 17:32 23.28691 77.33765 1712 ft 25 kts 122°
2026-04-23 17:32 23.28584 77.33833 1714 ft 20 kts 234°
2026-04-23 17:33 23.28500 77.33791 1715 ft 15 kts 122°
2026-04-23 17:33 23.28451 77.33894 1714 ft 15 kts 117°
2026-04-23 17:33 23.28385 77.34020 1712 ft 22 kts 123°
2026-04-23 17:33 23.28307 77.34148 1709 ft 9 kts 118°
2026-04-23 17:34 23.28323 77.34155 1709 ft 0 kts 295°
2026-04-23 17:34 23.28335 77.34132 1710 ft 17 kts 298°
2026-04-23 17:34 23.28974 77.32818 1725 ft 170 kts 298°
2026-04-23 17:35 23.29542 77.31654 2468 ft 178 kts 299°
2026-04-23 17:35 23.31645 77.30212 4026 ft 203 kts 339°
2026-04-23 17:35 23.33040 77.29736 4654 ft 219 kts 339°
2026-04-23 17:36 23.34536 77.29214 5277 ft 236 kts 339°
2026-04-23 17:36 23.36146 77.28661 5945 ft 250 kts 340°
2026-04-23 17:36 23.37831 77.28095 6786 ft 258 kts 340°
2026-04-23 17:36 23.39594 77.27505 7448 ft 274 kts 340°
2026-04-23 17:37 23.41463 77.26878 8126 ft 288 kts 340°
2026-04-23 17:37 23.43389 77.26231 8996 ft 294 kts 341°
2026-04-23 17:37 23.47358 77.24899 10597 ft 311 kts 341°
2026-04-23 17:38 23.49476 77.24186 11176 ft 328 kts 341°
2026-04-23 17:38 23.51716 77.23431 11747 ft 344 kts 341°
2026-04-23 17:38 23.54069 77.22639 12304 ft 360 kts 341°
2026-04-23 17:38 23.56473 77.21832 13178 ft 364 kts 342°
2026-04-23 17:39 23.58891 77.21019 14121 ft 365 kts 342°
2026-04-23 17:39 23.61300 77.20208 14956 ft 369 kts 342°
2026-04-23 17:39 23.63762 77.19379 15773 ft 372 kts 343°
2026-04-23 17:39 23.66247 77.18541 16603 ft 374 kts 343°
2026-04-23 17:40 23.68715 77.17709 17379 ft 377 kts 343°
2026-04-23 17:40 23.71248 77.16855 18121 ft 381 kts 343°
2026-04-23 17:40 23.73774 77.16003 18896 ft 384 kts 343°
2026-04-23 17:40 23.76334 77.15138 19613 ft 388 kts 343°
2026-04-23 17:41 23.78921 77.14265 20326 ft 392 kts 343°
2026-04-23 17:41 23.84186 77.12486 21786 ft 397 kts 343°
2026-04-23 17:41 23.86828 77.11592 22476 ft 401 kts 343°
2026-04-23 17:42 23.92211 77.09770 23711 ft 409 kts 343°
2026-04-23 17:42 23.94915 77.08854 24368 ft 412 kts 343°
2026-04-23 17:42 23.97699 77.07911 24917 ft 417 kts 343°
2026-04-23 17:43 24.00469 77.06971 25469 ft 421 kts 343°
2026-04-23 17:43 24.03275 77.06019 26053 ft 424 kts 343°
2026-04-23 17:43 24.06086 77.05064 26614 ft 427 kts 343°
2026-04-23 17:43 24.08934 77.04097 27110 ft 431 kts 343°
2026-04-23 17:44 24.11814 77.03118 27631 ft 435 kts 343°
2026-04-23 17:44 24.14732 77.02126 28170 ft 437 kts 343°
2026-04-23 17:44 24.20576 77.00138 29155 ft 444 kts 343°
2026-04-23 17:45 24.23563 76.99121 29649 ft 447 kts 343°
2026-04-23 17:45 24.29446 76.97118 31130 ft 439 kts 342°
2026-04-23 17:45 24.32352 76.96127 31650 ft 439 kts 342°
2026-04-23 17:46 24.38206 76.94129 32747 ft 438 kts 341°
2026-04-23 17:46 24.41089 76.93144 33264 ft 437 kts 341°
2026-04-23 17:46 24.44013 76.92132 33750 ft 437 kts 341°
2026-04-23 17:47 24.46882 76.91116 34235 ft 436 kts 340°
2026-04-23 17:47 24.49770 76.90080 34698 ft 435 kts 340°
2026-04-23 17:47 24.55512 76.88011 35602 ft 433 kts 340°
2026-04-23 17:48 24.58359 76.86986 35859 ft 436 kts 340°
2026-04-23 17:48 24.64138 76.84905 35866 ft 433 kts 340°
2026-04-23 17:49 24.69835 76.82860 35867 ft 431 kts 340°
2026-04-23 17:49 24.75540 76.80810 35856 ft 432 kts 340°
2026-04-23 17:50 24.81261 76.78754 35850 ft 432 kts 340°
2026-04-23 17:50 24.89850 76.75663 35841 ft 433 kts 340°
2026-04-23 17:51 24.95567 76.73604 35836 ft 433 kts 340°
2026-04-23 17:51 25.01300 76.71538 35578 ft 433 kts 340°
2026-04-23 17:52 25.04166 76.70520 35763 ft 432 kts 340°
2026-04-23 17:52 25.12775 76.67491 35828 ft 433 kts 340°
2026-04-23 17:53 25.21392 76.64459 35819 ft 433 kts 340°
2026-04-23 17:54 25.27139 76.62430 35814 ft 432 kts 340°
2026-04-23 17:54 25.35754 76.59383 35815 ft 433 kts 340°
2026-04-23 17:55 25.44339 76.56342 35822 ft 432 kts 340°
2026-04-23 17:56 25.50056 76.54312 35822 ft 431 kts 340°
2026-04-23 17:56 25.58609 76.51273 35823 ft 431 kts 340°
2026-04-23 17:57 25.64317 76.49242 35817 ft 430 kts 340°
2026-04-23 17:58 25.72889 76.46188 35809 ft 431 kts 340°
2026-04-23 17:58 25.78577 76.44160 35812 ft 431 kts 340°
2026-04-23 17:59 25.84304 76.42116 35821 ft 430 kts 340°
2026-04-23 17:59 25.90100 76.40540 35821 ft 433 kts 353°
2026-04-23 17:59 25.93125 76.40583 35828 ft 436 kts
2026-04-23 18:00 25.96146 76.41140 35827 ft 437 kts
2026-04-23 18:00 26.02086 76.42668 35831 ft 438 kts 12°
2026-04-23 18:01 26.08001 76.44306 35826 ft 439 kts 12°
2026-04-23 18:01 26.13967 76.45929 35819 ft 440 kts 12°
2026-04-23 18:02 26.18919 76.47248 35815 ft 439 kts 11°
2026-04-23 18:02 26.25826 76.49068 35808 ft 439 kts 11°
2026-04-23 18:03 26.31778 76.50626 35812 ft 440 kts 11°
2026-04-23 18:03 26.37751 76.52188 35815 ft 440 kts 11°
2026-04-23 18:04 26.43707 76.53747 35815 ft 439 kts 11°
2026-04-23 18:04 26.49640 76.55304 35818 ft 440 kts 11°
2026-04-23 18:05 26.55619 76.56886 36069 ft 440 kts 11°
2026-04-23 18:05 26.58615 76.57681 35868 ft 439 kts 11°
2026-04-23 18:05 26.61555 76.58463 35839 ft 435 kts 11°
2026-04-23 18:06 26.67459 76.60033 35549 ft 433 kts 11°
2026-04-23 18:06 26.70379 76.60809 35001 ft 432 kts 11°
2026-04-23 18:06 26.73292 76.61584 34542 ft 427 kts 11°
2026-04-23 18:06 26.76172 76.62351 34047 ft 424 kts 11°
2026-04-23 18:07 26.79025 76.63111 33535 ft 422 kts 11°
2026-04-23 18:07 26.81870 76.63868 33019 ft 419 kts 11°
2026-04-23 18:07 26.84676 76.64616 32502 ft 417 kts 11°
2026-04-23 18:07 26.87499 76.65367 31990 ft 414 kts 11°
2026-04-23 18:08 26.89352 76.65861 31663 ft 412 kts 11°
2026-04-23 18:08 26.93051 76.66848 30987 ft 408 kts 11°
2026-04-23 18:08 26.95827 76.67589 30477 ft 406 kts 11°
2026-04-23 18:08 26.98553 76.68317 29985 ft 403 kts 11°
2026-04-23 18:09 27.01260 76.69039 29495 ft 400 kts 11°
2026-04-23 18:09 27.03944 76.69756 29012 ft 397 kts 11°
2026-04-23 18:09 27.06630 76.70474 28526 ft 394 kts 11°
2026-04-23 18:09 27.09315 76.71192 28034 ft 391 kts 11°
2026-04-23 18:10 27.11920 76.71890 27558 ft 389 kts 11°
2026-04-23 18:10 27.14532 76.72657 27185 ft 384 kts 15°
2026-04-23 18:10 27.17055 76.73636 26856 ft 378 kts 18°
2026-04-23 18:10 27.19495 76.74719 26414 ft 376 kts 20°
2026-04-23 18:11 27.21898 76.75829 25949 ft 374 kts 20°
2026-04-23 18:11 27.24283 76.76933 25486 ft 372 kts 20°
2026-04-23 18:11 27.26681 76.78030 25026 ft 369 kts 20°
2026-04-23 18:11 27.29040 76.79095 24566 ft 367 kts 20°
2026-04-23 18:12 27.31408 76.80151 24097 ft 365 kts 19°
2026-04-23 18:12 27.33768 76.81196 23630 ft 363 kts 19°
2026-04-23 18:12 27.36106 76.82227 23176 ft 361 kts 19°
2026-04-23 18:12 27.38455 76.83260 22717 ft 358 kts 19°
2026-04-23 18:13 27.40772 76.84278 22261 ft 356 kts 19°
2026-04-23 18:13 27.43064 76.85284 21817 ft 353 kts 19°
2026-04-23 18:13 27.45344 76.86285 21373 ft 351 kts 19°
2026-04-23 18:13 27.47606 76.87279 20938 ft 349 kts 19°
2026-04-23 18:14 27.49878 76.88277 20492 ft 347 kts 19°
2026-04-23 18:14 27.52115 76.89259 20053 ft 345 kts 19°
2026-04-23 18:14 27.54332 76.90234 19617 ft 343 kts 19°
2026-04-23 18:14 27.56545 76.91207 19188 ft 341 kts 19°
2026-04-23 18:15 27.58769 76.92186 18758 ft 339 kts 19°
2026-04-23 18:15 27.60961 76.93150 18325 ft 337 kts 19°
2026-04-23 18:15 27.63141 76.94111 17894 ft 336 kts 19°
2026-04-23 18:15 27.65313 76.95068 17463 ft 334 kts 19°
2026-04-23 18:16 27.67470 76.96020 17041 ft 333 kts 19°
2026-04-23 18:16 27.69616 76.96967 16619 ft 331 kts 19°
2026-04-23 18:16 27.71756 76.97910 16198 ft 330 kts 20°
2026-04-23 18:17 27.76037 76.99800 15347 ft 328 kts 20°
2026-04-23 18:17 27.78146 77.00732 14928 ft 327 kts 20°
2026-04-23 18:17 27.80262 77.01666 14506 ft 326 kts 20°
2026-04-23 18:17 27.82363 77.02595 14088 ft 324 kts 20°
2026-04-23 18:18 27.84462 77.03522 13675 ft 323 kts 20°
2026-04-23 18:18 27.86552 77.04446 13254 ft 322 kts 20°
2026-04-23 18:18 27.88633 77.05367 12841 ft 320 kts 20°
2026-04-23 18:18 27.90709 77.06287 12426 ft 319 kts 20°
2026-04-23 18:19 27.92763 77.07197 12018 ft 317 kts 21°
2026-04-23 18:19 27.94817 77.08106 11607 ft 315 kts 21°
2026-04-23 18:19 27.96851 77.09008 11201 ft 313 kts 21°
2026-04-23 18:19 27.98864 77.09901 10797 ft 311 kts 21°
2026-04-23 18:20 28.00878 77.10795 10393 ft 309 kts 21°
2026-04-23 18:20 28.02875 77.11681 9990 ft 307 kts 21°
2026-04-23 18:20 28.04858 77.12562 9716 ft 300 kts 21°
2026-04-23 18:20 28.06751 77.13403 9455 ft 292 kts 21°
2026-04-23 18:21 28.08632 77.14239 9050 ft 290 kts 21°
2026-04-23 18:21 28.10514 77.15076 8725 ft 286 kts 21°
2026-04-23 18:21 28.12350 77.15892 8484 ft 279 kts 21°
2026-04-23 18:21 28.14124 77.16682 8252 ft 273 kts 21°
2026-04-23 18:22 28.15899 77.17472 8013 ft 269 kts 21°
2026-04-23 18:22 28.17634 77.18245 7778 ft 268 kts 21°
2026-04-23 18:22 28.19372 77.19019 7542 ft 269 kts 21°
2026-04-23 18:22 28.21121 77.19797 7308 ft 268 kts 21°
2026-04-23 18:23 28.22282 77.20315 7152 ft 268 kts 20°
2026-04-23 18:23 28.26226 77.22349 6613 ft 267 kts 26°
2026-04-23 18:24 28.29534 77.24271 6145 ft 267 kts 26°
2026-04-23 18:24 28.31196 77.25240 5912 ft 266 kts 26°
2026-04-23 18:24 28.32824 77.26193 5712 ft 264 kts 26°
2026-04-23 18:25 28.36057 77.28100 5340 ft 254 kts 26°
2026-04-23 18:25 28.37595 77.29012 5155 ft 248 kts 26°
2026-04-23 18:25 28.39121 77.29917 4987 ft 241 kts 26°
2026-04-23 18:25 28.40582 77.30791 4845 ft 234 kts 26°
2026-04-23 18:26 28.42012 77.31654 4710 ft 231 kts 26°
2026-04-23 18:26 28.43432 77.32518 4568 ft 232 kts 26°
2026-04-23 18:26 28.44877 77.33349 4422 ft 229 kts 17°
2026-04-23 18:26 28.46386 77.33683 4286 ft 219 kts
2026-04-23 18:27 28.47899 77.33796 4141 ft 211 kts
2026-04-23 18:27 28.49336 77.33891 4006 ft 204 kts
2026-04-23 18:27 28.50723 77.33986 3866 ft 197 kts
2026-04-23 18:27 28.52062 77.34078 3737 ft 187 kts 359°
2026-04-23 18:28 28.53273 77.33727 3590 ft 176 kts 319°
2026-04-23 18:28 28.53997 77.32633 3548 ft 177 kts 300°
2026-04-23 18:28 28.54634 77.31426 3501 ft 176 kts 301°
2026-04-23 18:28 28.55274 77.30249 3454 ft 175 kts 301°
2026-04-23 18:29 28.55925 77.29050 3405 ft 175 kts 298°
2026-04-23 18:29 28.56287 77.27809 3360 ft 160 kts 279°
2026-04-23 18:29 28.56432 77.26619 3315 ft 150 kts 278°
2026-04-23 18:29 28.56542 77.25418 3069 ft 150 kts 275°
2026-04-23 18:30 28.56609 77.24273 2884 ft 144 kts 274°
2026-04-23 18:30 28.56662 77.23126 2696 ft 146 kts 274°
2026-04-23 18:30 28.56705 77.21978 2509 ft 145 kts 273°
2026-04-23 18:30 28.56743 77.20824 2323 ft 145 kts 272°
2026-04-23 18:31 28.56778 77.19674 2138 ft 145 kts 272°
2026-04-23 18:31 28.56809 77.18522 1951 ft 146 kts 272°
2026-04-23 18:31 28.56843 77.17360 1782 ft 148 kts 271°
2026-04-23 18:31 28.56873 77.16192 1591 ft 149 kts 271°
2026-04-23 18:32 28.56903 77.15018 1395 ft 148 kts 272°
2026-04-23 18:32 28.56934 77.13847 1214 ft 149 kts 271°
2026-04-23 18:32 28.56965 77.12655 1001 ft 151 kts 271°
2026-04-23 18:32 28.56996 77.11456 792 ft 151 kts 271°
2026-04-23 18:33 28.57019 77.10398 780 ft 102 kts 272°
2026-04-23 18:33 28.57028 77.09879 779 ft 31 kts 262°
2026-04-23 18:33 28.56891 77.09789 779 ft 24 kts 142°
2026-04-23 18:33 28.56880 77.09963 779 ft 22 kts 98°
2026-04-23 18:34 28.56868 77.10141 779 ft 25 kts 89°
2026-04-23 18:34 28.56864 77.10359 779 ft 28 kts 91°
2026-04-23 18:34 28.56859 77.10578 779 ft 26 kts 91°
2026-04-23 18:34 28.56854 77.10786 779 ft 25 kts 91°
2026-04-23 18:35 28.56850 77.10986 779 ft 24 kts 91°
2026-04-23 18:35 28.56845 77.11174 779 ft 21 kts 91°
2026-04-23 18:35 28.56840 77.11341 779 ft 20 kts 91°
2026-04-23 18:35 28.56748 77.11419 779 ft 18 kts 173°
2026-04-23 18:36 28.56654 77.11465 779 ft 10 kts 176°
2026-04-23 18:36 28.56620 77.11459 779 ft 3 kts 209°
2026-04-23 18:36 28.56608 77.11453 779 ft 1 kts 194°
2026-04-23 18:36 28.56606 77.11452 779 ft 0 kts 194°